Amarillo, TX

6:34 AM CDT on October 15, 2019 (GMT -0500)
Amarillo International

Weather History for KAMA - September, 2019

Change the Weather History Date:

Wednesday, September 18, 2019

  Actual Average Record
Temperature  
Mean Temperature 81 °F 69 °F  
Max Temperature 96 °F 82 °F 99 °F (1997)
Min Temperature 65 °F 56 °F 40 °F (1971)
Degree Days  
Heating Degree Days 0 2  
Month to date heating degree days 0 10  
Since 1 July heating degree days 0 11  
Cooling Degree Days 16 5  
Month to date cooling degree days 234 134  
Year to date cooling degree days 1555 1326  
Growing Degree Days 30 (Base 50)    
Moisture  
Dew Point 55 °F    
Average Humidity 48    
Maximum Humidity 73    
Minimum Humidity 22    
Precipitation  
Precipitation 0.00 in 0.06 in 1.30 in (1923)
Month to date precipitation 0.09 1.19  
Year to date precipitation 17.08 16.46  
Snow  
Snow 0.00 in 0.00 in 0.00 in ()
Month to date snowfall 0.0 0.0  
Since 1 July snowfall 0.0 0.0  
Since 1 September snowfall 0.0 0.0  
Snow Depth 0.00 in    
Sea Level Pressure  
Sea Level Pressure 29.84 in    
Wind  
Wind Speed 13 mph (South)    
Max Wind Speed 28 mph    
Max Gust Speed 33 mph    
Visibility 10 miles    
Events      
T = Trace of Precipitation, MM = Missing Value Source: NWS Daily Summary

Daily Weather History Graph

Daily Weather History Graph

Search for Another Location

Airport or City:

Astronomy

Sep. 18, 2019 Rise Set
Actual Time 7:31 AM CDT 7:49 PM CDT
Civil Twilight 7:06 AM CDT 8:15 PM CDT
Nautical Twilight 6:36 AM CDT 8:44 PM CDT
Astronomical Twilight 6:06 AM CDT 9:14 PM CDT
Moon 10:34 PM CDT (9/18) 11:28 AM CDT (9/18)
Length of Visible Light 13h 08m
Length of Day
12h 17m
Waning Gibbous, 82% of the Moon is Illuminated
Sep 18
Waning Gibbous
Sep 21
Last Quarter
Sep 28
New
Oct 5
First Quarter
Oct 13
Full

Hourly Weather History & Observations

Time (CDT) Temp. Heat Index Dew Point Humidity Pressure Visibility Wind Dir Wind Speed Gust Speed Precip Events Conditions
12:53 AM 73.9 °F - 55.0 °F 52% 29.82 in 10.0 mi SSE 15.0 mph - N/A   Clear
1:53 AM 73.0 °F - 55.0 °F 53% 29.82 in 10.0 mi SSE 15.0 mph - N/A   Clear
2:53 AM 72.0 °F - 55.9 °F 57% 29.83 in 10.0 mi South 16.1 mph - N/A   Clear
3:53 AM 71.1 °F - 55.9 °F 59% 29.83 in 10.0 mi South 12.7 mph - N/A   Clear
4:53 AM 66.0 °F - 55.9 °F 70% 29.84 in 10.0 mi South 11.5 mph - N/A   Clear
5:53 AM 66.0 °F - 55.9 °F 70% 29.84 in 10.0 mi South 11.5 mph - N/A   Clear
6:53 AM 64.9 °F - 55.9 °F 73% 29.86 in 10.0 mi South 11.5 mph - N/A   Clear
7:53 AM 66.0 °F - 55.9 °F 70% 29.87 in 10.0 mi South 13.8 mph - N/A   Clear
8:53 AM 70.0 °F - 55.9 °F 61% 29.88 in 10.0 mi South 11.5 mph - N/A   Clear
9:53 AM 75.9 °F - 55.9 °F 50% 29.88 in 10.0 mi South 15.0 mph - N/A   Clear
10:53 AM 82.9 °F 82.1 °F 55.9 °F 39% 29.87 in 10.0 mi SSW 13.8 mph - N/A   Clear
11:53 AM 89.1 °F 87.3 °F 55.9 °F 32% 29.86 in 10.0 mi SW 12.7 mph - N/A   Clear
12:53 PM 91.0 °F - 52.0 °F 26% 29.85 in 10.0 mi South 6.9 mph 21.9 mph N/A   Clear
1:53 PM 95.0 °F - 52.0 °F 23% 29.82 in 10.0 mi SSW 17.3 mph 25.3 mph N/A   Clear
2:53 PM 91.9 °F - 51.1 °F 25% 29.80 in 10.0 mi SSE 9.2 mph 25.3 mph N/A   Clear
3:53 PM 93.9 °F - 48.9 °F 21% 29.78 in 10.0 mi South 16.1 mph 25.3 mph N/A   Scattered Clouds
4:53 PM 93.0 °F - 51.1 °F 24% 29.78 in 10.0 mi South 15.0 mph - N/A   Scattered Clouds
5:53 PM 82.9 °F 81.9 °F 54.0 °F 37% 29.81 in 10.0 mi South 25.3 mph 32.2 mph N/A   Clear
6:53 PM 84.0 °F - 52.0 °F 33% 29.82 in 10.0 mi South 10.4 mph - N/A   Clear
7:53 PM 81.0 °F 80.8 °F 55.9 °F 42% 29.83 in 10.0 mi SE 8.1 mph - N/A   Clear
8:53 PM 77.0 °F - 57.0 °F 50% 29.86 in 10.0 mi ESE 12.7 mph - N/A   Clear
9:53 PM 75.9 °F - 59.0 °F 56% 29.87 in 10.0 mi ESE 16.1 mph - N/A   Clear
10:53 PM 73.9 °F - 60.1 °F 62% 29.86 in 10.0 mi SE 15.0 mph - N/A   Clear
11:53 PM 73.9 °F - 60.1 °F 62% 29.84 in 10.0 mi SSE 12.7 mph - N/A   Clear